Wind_Speed
128 124 120 117 116 116 116 118 118 118 118 115 116 113 114 112 111 110 109 109 106 106 105 104 104 101 101 102 102 102 100 101 98 99 96 97 98 101 104 106 109 108 111
130 129 123 123 122 121 116 119 122 123 123 124 123 122 122 122 122 117 117 116 117 116 115 114 114 112 109 108 108 108 108 108 109 107 103 105 106 106 109 114 115 116 118
128 127 125 124 123 121 119 116 118 123 121 128 126 127 126 127 128 128 122 118 122 126 122 122 122 119 115 114 114 115 115 115 115 114 112 111 111 113 114 116 119 118 122
121 123 121 119 119 117 116 119 118 121 122 120 125 129 133 127 127 126 126 120 112 119 127 130 129 127 124 121 121 122 122 122 121 118 118 121 118 122 122 125 125 124 126
116 116 114 117 117 120 121 122 121 123 124 128 124 123 125 125 125 123 123 120 117 115 119 121 127 131 132 128 126 126 125 125 128 125 120 123 126 127 128 128 128 127 132
121 120 116 115 114 114 116 116 114 112 115 120 121 125 130 125 126 126 126 122 124 118 118 122 119 123 128 131 131 132 131 127 122 123 128 126 125 125 125 132 130 126 124
117 122 122 118 120 122 118 116 120 121 118 114 119 120 129 126 130 127 126 128 126 129 123 116 117 117 121 126 129 132 132 131 128 124 123 116 124 125 121 128 132 129 121
109 114 120 123 121 123 125 121 118 118 120 122 121 115 119 121 123 124 128 128 127 124 121 118 115 119 114 117 120 123 123 122 117 117 120 120 122 120 119 124 124 122 116
107 108 109 115 121 123 123 126 125 122 118 117 121 121 120 121 122 122 126 116 117 118 119 119 115 116 112 116 115 113 113 108 106 110 115 118 118 119 123 127 125 122 120
101 105 108 110 112 115 119 122 125 127 126 124 122 122 121 119 119 119 121 118 118 117 117 113 114 112 117 119 115 115 114 108 109 110 116 118 121 117 119 123 122 121 117
99 101 104 107 107 110 112 115 119 121 122 121 121 122 123 123 124 125 126 126 123 121 118 113 113 115 115 117 113 110 107 109 107 111 112 118 121 122 121 119 117 116 115
93 95 99 103 105 106 106 108 114 117 117 119 123 125 126 124 124 125 126 125 125 121 122 121 119 119 118 115 113 107 108 109 110 112 113 116 120 119 119 114 115 116 115
93 94 95 97 99 100 98 98 99 105 111 114 118 122 126 127 130 131 131 129 128 125 120 116 117 119 119 113 111 108 109 110 115 113 116 119 124 123 123 120 118 115 115
91 93 93 92 94 97 96 95 95 96 98 98 104 112 121 123 126 129 131 132 129 125 120 118 114 114 118 119 115 113 111 111 111 113 118 120 123 124 120 121 119 115 116
83 85 86 86 87 89 90 90 88 89 91 93 94 99 106 112 118 125 130 131 130 128 124 123 119 114 113 114 116 113 113 114 115 112 122 122 119 122 124 119 120 118 117
80 81 81 80 81 82 83 84 84 83 84 85 89 92 99 103 110 115 123 126 128 128 123 123 123 118 115 114 111 112 112 114 116 119 118 119 119 120 119 120 122 121 120
75 73 74 75 77 78 79 79 80 77 77 76 78 85 90 98 103 107 111 117 122 124 118 119 119 117 116 116 114 114 113 114 114 114 115 116 116 115 118 119 120 118 120
66 66 65 67 68 69 70 71 72 72 70 68 69 74 81 87 91 96 103 109 112 114 110 113 116 115 115 115 116 119 117 117 117 115 118 114 114 113 118 122 119 119 119
60 61 60 59 60 61 63 64 64 65 66 63 60 66 68 74 79 85 90 95 104 108 104 105 109 111 114 116 116 117 116 116 117 117 114 114 114 117 115 119 120 120 119
53 54 54 53 54 55 56 57 58 59 59 59 57 58 61 65 71 76 78 88 94 99 97 99 102 103 109 114 113 115 115 116 114 113 114 115 116 115 117 118 120 122 120
49 49 49 49 49 50 51 52 52 52 52 53 53 54 54 58 63 67 73 79 82 85 89 91 96 100 107 108 108 109 110 112 112 112 115 115 115 116 119 118 121 123 124
47 45 45 46 46 46 47 48 48 49 49 49 50 50 52 57 61 66 71 73 75 78 83 88 92 98 102 104 103 103 104 105 106 107 108 109 113 115 117 120 122 120 119
44 44 43 43 44 44 43 44 46 47 47 48 48 49 51 55 59 62 65 70 73 75 79 84 87 86 89 93 96 97 97 96 97 99 100 103 108 112 115 116 116 115 112
43 41 40 41 41 41 42 42 42 43 45 46 46 47 48 51 55 59 63 67 69 73 75 77 80 80 82 85 88 88 88 91 92 92 92 94 98 104 107 108 108 107 103
40 40 39 37 38 40 40 40 41 42 43 44 45 46 46 48 52 56 60 64 67 70 72 74 76 78 78 79 82 84 86 86 87 88 89 92 95 97 98 98 95 94 93
38 37 37 36 36 35 37 38 39 39 39 40 42 44 44 45 48 51 55 59 63 66 68 70 73 75 77 77 78 80 82 83 85 87 89 90 91 90 88 89 89 89 88
Wind_Direction
268 271 268 266 266 265 261 261 257 256 259 257 258 258 260 260 259 258 259 258 258 260 261 261 262 263 264 266 267 267 269 271 272 271 271 271 273 273 273 276 279 279 280
266 267 266 266 264 261 260 259 259 252 255 259 257 256 258 259 260 258 255 257 256 257 258 260 261 262 263 263 265 267 267 269 271 271 272 273 275 275 275 275 277 279 281
264 266 267 265 264 263 261 260 257 254 254 257 258 257 258 258 260 261 258 256 257 257 257 259 260 261 263 264 265 265 266 267 269 271 273 273 274 276 275 276 276 277 280
264 264 261 261 263 265 263 260 258 258 255 259 258 260 257 258 259 259 259 258 260 257 255 255 257 258 260 262 264 265 266 267 267 270 272 273 274 273 276 277 277 277 279
262 261 259 259 261 262 261 263 263 262 260 259 259 257 260 262 257 259 259 260 261 259 259 256 257 257 258 260 262 265 267 269 269 270 270 270 272 273 275 275 275 276 278
260 260 259 257 258 258 258 260 261 259 261 260 257 258 258 261 260 259 260 261 263 263 261 257 256 256 257 257 258 261 264 267 267 269 267 270 272 273 273 273 274 277 277
255 255 257 258 258 258 258 258 258 260 261 261 258 256 259 259 261 261 261 263 264 267 263 261 261 259 259 259 260 260 261 263 265 265 265 266 268 270 271 273 275 277 277
255 254 255 256 256 256 257 258 259 259 259 260 259 258 259 260 260 261 260 261 260 261 262 260 259 258 257 256 257 257 259 261 260 262 264 265 267 269 269 272 275 275 278
258 257 255 255 255 255 256 257 257 257 258 258 257 258 258 259 260 260 262 260 258 258 258 258 259 254 253 252 255 258 259 259 263 262 262 264 265 266 270 273 275 276 278
260 260 258 256 256 255 255 255 256 257 258 258 258 258 258 258 259 258 259 259 258 258 259 258 258 256 255 257 257 258 260 262 264 264 263 265 266 269 272 273 276 278 279
264 263 261 260 256 255 255 255 255 255 256 256 256 256 256 256 257 258 259 260 259 257 257 257 257 257 257 259 259 260 261 262 264 264 264 265 267 269 271 274 274 276 278
268 265 264 263 262 260 257 252 253 253 254 254 255 255 255 255 256 257 257 258 259 259 259 257 256 257 258 259 261 260 261 262 262 262 264 267 268 270 271 274 274 276 279
271 268 266 264 264 263 261 259 257 254 253 252 252 252 253 254 254 256 257 257 257 258 259 258 257 256 257 259 260 260 259 259 260 262 263 265 268 271 272 274 276 276 277
270 269 268 266 265 264 263 261 259 257 255 251 251 251 251 252 252 254 255 256 258 258 258 257 257 257 256 257 257 258 260 260 261 262 264 265 266 269 272 273 274 276 277
272 271 270 269 267 266 265 264 261 258 256 253 251 249 249 249 249 251 253 256 257 258 258 258 258 257 258 257 257 259 260 262 262 262 262 266 268 269 270 273 274 276 277
274 274 273 271 269 268 266 265 263 260 258 255 253 249 248 248 248 248 250 252 254 256 255 256 258 259 259 259 259 259 258 258 259 259 260 262 263 265 268 270 272 274 276
277 275 273 270 268 268 267 266 265 263 260 256 252 251 249 248 248 249 248 250 251 255 254 255 258 259 259 260 260 258 259 259 259 260 260 262 264 266 266 268 271 274 275
278 276 274 272 270 268 267 266 266 265 263 258 254 251 250 249 251 249 249 251 253 255 253 253 255 257 257 256 257 258 259 260 261 262 263 265 266 266 268 271 273 275 278
279 278 276 274 271 269 267 265 264 263 263 261 257 254 251 251 251 251 251 251 252 254 253 252 253 254 255 256 255 257 259 260 262 263 265 266 265 268 268 272 274 276 280
281 280 278 275 272 270 269 266 264 263 261 261 257 253 250 248 248 248 249 249 250 252 253 252 252 252 252 254 256 257 258 261 262 264 264 265 266 268 270 270 272 276 279
285 283 279 277 273 270 268 266 265 263 261 259 255 252 249 247 245 246 248 249 250 251 252 252 251 249 252 255 256 257 259 260 263 263 263 265 266 268 269 271 272 274 277
286 284 281 278 275 272 270 268 266 263 261 258 255 253 248 245 244 242 243 245 245 246 248 248 248 249 251 255 257 259 260 261 262 263 265 266 266 268 269 270 272 275 277
287 286 283 279 277 274 270 267 266 265 263 260 257 254 249 247 245 245 244 245 245 245 246 248 251 253 254 255 256 257 259 260 261 263 264 265 265 267 268 270 272 274 276
290 287 284 282 278 275 272 268 266 264 262 261 259 257 253 249 247 246 246 245 245 246 246 248 251 251 252 253 255 257 258 258 259 261 262 262 262 263 265 267 270 272 275
288 287 284 279 276 274 272 269 265 262 260 259 257 256 253 251 248 245 245 245 245 245 246 247 249 251 253 253 254 254 256 258 258 260 260 260 261 263 265 267 269 271 273
286 285 283 281 278 273 271 269 267 264 261 260 260 257 253 250 250 248 246 245 244 245 246 246 248 250 251 252 253 253 254 256 258 259 260 262 264 267 270 272 273 274 275
Height
10460 10460 10461 10464 10467 10469 10468 10468 10472 10475 10476 10478 10480 10483 10487 10488 10490 10494 10497 10500 10501 10500 10503 10504 10504 10505 10508 10510 10510 10512 10513 10514 10516 10514 10517 10519 10520 10520 10517 10514 10513 10513 10511
10418 10420 10420 10422 10423 10426 10426 10427 10428 10434 10439 10442 10445 10450 10452 10455 10458 10464 10465 10468 10470 10471 10473 10473 10476 10478 10480 10482 10483 10484 10486 10487 10489 10488 10490 10490 10491 10490 10486 10484 10483 10483 10482
10382 10381 10379 10380 10383 10384 10385 10388 10391 10395 10398 10404 10409 10412 10417 10418 10422 10425 10432 10437 10438 10440 10441 10444 10445 10448 10452 10453 10453 10454 10457 10459 10460 10462 10465 10464 10463 10462 10458 10456 10454 10453 10452
10340 10342 10342 10343 10343 10345 10345 10348 10351 10353 10363 10366 10369 10373 10375 10383 10387 10390 10394 10401 10406 10405 10408 10410 10412 10419 10421 10423 10423 10423 10426 10429 10431 10436 10437 10436 10434 10432 10432 10429 10425 10422 10423
10303 10304 10305 10308 10309 10307 10308 10310 10312 10316 10323 10327 10332 10338 10338 10342 10350 10354 10359 10363 10368 10373 10374 10381 10386 10388 10389 10392 10392 10394 10394 10397 10399 10403 10407 10407 10404 10403 10401 10401 10398 10393 10393
10266 10266 10268 10269 10271 10273 10273 10271 10276 10280 10283 10288 10292 10298 10302 10306 10308 10315 10319 10326 10331 10337 10344 10348 10353 10356 10359 10363 10364 10367 10370 10369 10370 10372 10375 10374 10374 10372 10370 10369 10368 10364 10362
10230 10229 10230 10232 10235 10235 10238 10239 10239 10242 10246 10251 10254 10261 10263 10271 10269 10277 10282 10288 10294 10301 10310 10317 10321 10329 10330 10330 10333 10333 10338 10340 10343 10342 10346 10344 10342 10342 10341 10340 10336 10337 10332
10191 10194 10195 10196 10198 10199 10200 10201 10204 10205 10210 10213 10217 10223 10228 10231 10232 10236 10242 10254 10260 10267 10272 10280 10288 10292 10300 10298 10297 10299 10305 10309 10311 10313 10315 10315 10314 10312 10309 10307 10306 10308 10308
10154 10156 10158 10158 10160 10160 10161 10163 10166 10167 10174 10178 10182 10185 10190 10198 10199 10201 10201 10214 10222 10231 10239 10245 10253 10259 10266 10266 10267 10270 10274 10281 10282 10281 10283 10283 10282 10281 10279 10275 10276 10279 10280
10119 10119 10120 10123 10124 10126 10128 10131 10132 10133 10139 10143 10151 10154 10158 10163 10163 10166 10168 10176 10189 10198 10203 10212 10219 10229 10230 10234 10239 10240 10245 10253 10253 10253 10248 10250 10249 10254 10252 10248 10247 10245 10244
10084 10082 10080 10080 10085 10088 10092 10096 10097 10099 10102 10108 10113 10117 10121 10128 10131 10132 10135 10140 10148 10158 10170 10181 10187 10192 10196 10199 10205 10213 10220 10217 10220 10218 10220 10221 10223 10222 10222 10220 10219 10216 10215
10048 10048 10044 10041 10041 10047 10053 10062 10060 10063 10068 10076 10076 10080 10083 10088 10093 10095 10101 10107 10110 10120 10132 10145 10153 10156 10160 10167 10171 10183 10181 10188 10186 10190 10192 10192 10190 10191 10190 10191 10191 10188 10185
10010 10009 10006 10006 10005 10006 10013 10020 10025 10027 10035 10044 10044 10048 10052 10053 10058 10060 10065 10072 10077 10085 10098 10107 10117 10123 10125 10135 10139 10145 10147 10158 10157 10162 10164 10164 10159 10157 10155 10159 10157 10157 10156
9973 9969 9969 9973 9972 9970 9974 9980 9986 9990 9993 10003 10009 10016 10018 10021 10025 10028 10029 10031 10040 10051 10065 10073 10080 10085 10091 10099 10106 10115 10120 10127 10129 10131 10130 10131 10129 10127 10127 10126 10127 10127 10124
9942 9938 9937 9937 9937 9938 9938 9941 9949 9952 9955 9964 9974 9976 9980 9989 9994 9990 9992 10000 10005 10014 10028 10035 10044 10055 10059 10069 10075 10087 10091 10095 10097 10103 10096 10099 10100 10097 10095 10097 10097 10095 10090
9914 9911 9910 9910 9908 9907 9908 9908 9911 9918 9922 9932 9937 9944 9947 9954 9952 9958 9961 9967 9971 9977 9998 10005 10010 10022 10030 10036 10046 10054 10061 10063 10064 10065 10068 10067 10070 10070 10070 10068 10065 10063 10062
9884 9884 9882 9879 9879 9879 9880 9882 9881 9886 9892 9900 9907 9911 9917 9920 9923 9928 9933 9936 9940 9943 9972 9977 9983 9993 10001 10005 10012 10019 10025 10025 10029 10034 10037 10039 10041 10041 10039 10039 10037 10038 10034
9859 9857 9856 9854 9854 9854 9854 9855 9857 9859 9863 9871 9878 9882 9886 9892 9896 9904 9906 9908 9915 9920 9945 9953 9956 9962 9969 9977 9982 9982 9991 9993 9995 10003 10004 10010 10012 10013 10009 10006 10008 10007 10005
9837 9833 9832 9832 9831 9830 9831 9832 9833 9836 9839 9845 9855 9856 9863 9868 9872 9877 9883 9890 9890 9894 9916 9926 9929 9932 9938 9941 9947 9952 9957 9964 9966 9971 9976 9979 9982 9980 9984 9980 9977 9976 9973
9817 9813 9811 9810 9810 9809 9808 9810 9812 9813 9816 9820 9828 9833 9839 9843 9846 9851 9858 9858 9862 9869 9886 9897 9901 9905 9903 9904 9915 9921 9927 9933 9939 9943 9948 9950 9951 9953 9951 9952 9950 9944 9942
9797 9795 9792 9790 9789 9789 9788 9789 9790 9792 9795 9798 9803 9810 9816 9820 9824 9828 9829 9831 9841 9851 9859 9868 9872 9870 9871 9877 9886 9894 9901 9907 9913 9919 9919 9920 9923 9923 9922 9923 9919 9915 9914
9780 9778 9775 9773 9772 9771 9770 9771 9772 9774 9776 9778 9782 9788 9793 9795 9797 9801 9803 9809 9817 9825 9829 9833 9838 9841 9849 9858 9868 9875 9879 9884 9887 9890 9891 9893 9894 9894 9894 9891 9889 9888 9886
9764 9762 9759 9758 9755 9754 9754 9755 9755 9757 9759 9761 9764 9767 9771 9774 9778 9782 9787 9790 9796 9803 9808 9811 9815 9829 9837 9842 9845 9850 9854 9858 9861 9863 9865 9866 9867 9867 9865 9863 9861 9860 9859
9749 9746 9744 9741 9740 9738 9737 9738 9739 9740 9741 9743 9746 9749 9753 9756 9760 9763 9767 9772 9777 9782 9787 9792 9797 9804 9811 9816 9819 9824 9829 9831 9833 9836 9839 9842 9842 9840 9837 9835 9832 9831 9832
9736 9733 9730 9728 9725 9723 9721 9721 9722 9723 9724 9726 9728 9730 9734 9736 9740 9744 9747 9750 9755 9761 9766 9771 9775 9779 9785 9791 9795 9796 9799 9802 9806 9809 9811 9811 9811 9810 9808 9808 9809 9808 9806
9722 9719 9717 9715 9712 9710 9708 9707 9707 9707 9708 9709 9711 9713 9715 9717 9720 9723 9727 9732 9736 9741 9746 9751 9755 9759 9762 9765 9770 9774 9777 9779 9779 9780 9780 9780 9780 9782 9783 9781 9780 9780 9778